Location: Montr�al
(45.5000°N, 73.5830°W)
Time: 10:15:18
(UTC-05:00)

Cosmos 1151 Rocket - Visible Passes

Search period start: 24 January 2017 00:00
Search period end: 03 February 2017 00:00
Orbit: 592 x 617 km, 82.5° (Epoch: 24 January)

Date Brightness Start Highest point End Pass type
(mag) Time Alt. Az. Time Alt. Az. Time Alt. Az.
24 Jan 3.4 06:12:19 10° S 06:16:33 66° E 06:20:47 10° NNE visible
24 Jan 4.6 17:54:20 10° NNW 17:58:20 38° W 18:02:18 10° SSW visible
25 Jan 6.5 04:51:46 10° E 04:52:27 10° E 04:53:08 10° ENE visible
25 Jan 2.9 06:25:05 10° SSW 06:29:21 74° W 06:33:37 10° N visible
25 Jan 5.6 18:07:32 10° NW 18:10:59 24° W 18:14:26 10° SW visible
26 Jan 6.0 05:02:15 10° SE 05:05:00 17° E 05:07:47 10° NE visible
26 Jan 3.3 06:38:07 10° SSW 06:42:12 44° WNW 06:46:18 10° N visible
26 Jan 6.2 18:21:08 10° NW 18:23:35 15° W 18:26:02 10° WSW visible
27 Jan 5.2 05:14:02 10° SSE 05:17:37 27° E 05:21:13 10° NNE visible
28 Jan 4.2 05:26:16 10° SSE 05:30:18 44° E 05:34:22 10° NNE visible
29 Jan 3.1 05:38:49 10° S 05:43:03 75° E 05:47:19 10° NNE visible
29 Jan 5.0 17:20:54 10° NNW 17:24:48 34° W 17:28:42 10° SSW visible
30 Jan 6.3 04:17:23 10° ESE 04:18:53 12° E 04:20:25 10° ENE visible
30 Jan 2.9 05:51:38 10° SSW 05:55:52 65° W 06:00:06 10° N visible
30 Jan 5.9 17:34:11 10° NW 17:37:27 21° W 17:40:44 10° SW visible
31 Jan 5.7 04:28:28 10° SE 04:31:28 19° E 04:34:28 10° NE visible
31 Jan 3.4 06:04:44 10° SW 06:08:44 39° WNW 06:12:45 10° N visible
31 Jan 6.2 17:47:56 10° NW 17:50:02 13° W 17:52:10 10° WSW visible
01 Feb 4.8 04:40:23 10° SSE 04:44:05 30° E 04:47:50 10° NNE visible
01 Feb 4.0 06:18:10 10° SW 06:21:40 25° WNW 06:25:12 10° NNW visible
02 Feb 3.8 04:52:41 10° SSE 04:56:47 50° E 05:00:56 10° NNE visible
02 Feb 4.5 06:32:02 10° WSW 06:34:40 16° WNW 06:37:21 10° NNW visible
